Weather History for Clinton, MO

Change the Weather History Date:

Tuesday, January 1, 2013

  Actual Average (KSZL) Record (KSZL)
Temperature  
Mean Temperature 19 °F -  
Max Temperature 28 °F 37 °F 62 °F (2000)
Min Temperature 10 °F 21 °F -4 °F (2001)
Degree Days  
Heating Degree Days 46    
Moisture  
Dew Point 17 °F    
Average Humidity 85    
Maximum Humidity 100    
Minimum Humidity 68    
Precipitation  
Precipitation 0.00 in - - ()
Sea Level Pressure  
Sea Level Pressure 30.23 in    
Wind  
Wind Speed 0 mph (North)    
Max Wind Speed 0 mph    
Max Gust Speed -    
Visibility 8 miles    
Events Rain    
Averages and records for this station are not official NWS values.
T = Trace of Precipitation, MM = Missing Value Source: NWS Daily Summary

Daily Weather History Graph

Daily Weather History Graph

Search for Another Location

Airport:

Trip Planner

Search our weather history database for the weather conditions in past years. The results will help you decide how hot, cold, wet, or windy it might be!

Date:

Astronomy

Jan. 01, 2013 Rise Set
Actual Time 7:31 AM CST 5:05 PM CST
Civil Twilight 7:02 AM CST 5:34 PM CST
Nautical Twilight 6:29 AM CST 6:07 PM CST
Astronomical Twilight 5:57 AM CST 6:40 PM CST
Moon 9:33 PM CST (1/1) 9:47 AM CST (1/1)
Length of Visible Light 10h 32m
Length of Day
9h 33m
Waning Gibbous, 83% of the Moon is Illuminated
Jan 1
Waning Gibbous
Jan 4
Last Quarter
Jan 11
New
Jan 18
First Quarter
Jan 26
Full

Hourly Weather History & Observations

Time (CST) Temp. Dew Point Humidity Pressure Visibility Wind Dir Wind Speed Gust Speed Precip Events Conditions
12:15 AM 28.4 °F 28.4 °F 100% 30.14 in 3.0 mi Calm Calm - N/A Rain Light Freezing Rain
12:35 AM 28.4 °F 26.6 °F 93% 30.14 in 5.0 mi Calm Calm - N/A Rain Light Freezing Rain
12:55 AM 28.4 °F 26.6 °F 93% 30.14 in 5.0 mi Calm Calm - N/A Rain Light Freezing Rain
1:15 AM 28.4 °F 26.6 °F 93% 30.15 in 5.0 mi Calm Calm - N/A   Overcast
1:35 AM 28.4 °F 24.8 °F 86% 30.15 in 6.0 mi Calm Calm - N/A   Overcast
1:55 AM 26.6 °F 24.8 °F 93% 30.16 in 7.0 mi Calm Calm - N/A   Overcast
2:15 AM 26.6 °F 24.8 °F 93% 30.16 in 7.0 mi Calm Calm - N/A   Overcast
2:35 AM 26.6 °F 23.0 °F 86% 30.16 in 7.0 mi Calm Calm - N/A   Overcast
3:15 AM 26.6 °F 23.0 °F 86% 30.17 in 8.0 mi Calm Calm - N/A   Overcast
3:35 AM 26.6 °F 23.0 °F 86% 30.15 in 8.0 mi Calm Calm - N/A   Overcast
3:55 AM 26.6 °F 23.0 °F 86% 30.15 in 9.0 mi Calm Calm - N/A   Overcast
4:15 AM 26.6 °F 23.0 °F 86% 30.17 in 8.0 mi Calm Calm - N/A   Overcast
4:35 AM 24.8 °F 21.2 °F 86% 30.15 in 9.0 mi Calm Calm - N/A   Overcast
5:15 AM 23.0 °F 21.2 °F 93% 30.12 in 8.0 mi Calm Calm - N/A   Mostly Cloudy
5:35 AM 23.0 °F 19.4 °F 86% 30.16 in 9.0 mi Calm Calm - N/A   Partly Cloudy
5:55 AM 23.0 °F 19.4 °F 86% 30.19 in 10.0 mi Calm Calm - N/A   Clear
6:15 AM 23.0 °F 19.4 °F 86% 30.21 in 9.0 mi Calm Calm - N/A   Mostly Cloudy
6:35 AM 23.0 °F 19.4 °F 86% 30.23 in 8.0 mi Calm Calm - N/A   Mostly Cloudy
6:55 AM 23.0 °F 19.4 °F 86% 30.23 in 9.0 mi Calm Calm - N/A   Overcast
7:15 AM 23.0 °F 19.4 °F 86% 30.22 in 9.0 mi Calm Calm - N/A   Overcast
7:35 AM 23.0 °F 19.4 °F 86% 30.25 in 8.0 mi Calm Calm - N/A   Overcast
8:15 AM 23.0 °F 19.4 °F 86% 30.26 in 7.0 mi Calm Calm - N/A   Overcast
8:35 AM 23.0 °F 19.4 °F 86% 30.27 in 7.0 mi Calm Calm - N/A   Overcast
9:15 AM 21.2 °F 17.6 °F 86% 30.24 in 8.0 mi Calm Calm - N/A   Overcast
9:35 AM 21.2 °F 17.6 °F 86% 30.24 in 8.0 mi Calm Calm - N/A   Overcast
10:15 AM 21.2 °F 17.6 °F 86% 30.28 in 8.0 mi Calm Calm - N/A   Overcast
10:35 AM 21.2 °F 17.6 °F 86% 30.30 in 8.0 mi Calm Calm - N/A   Overcast
11:15 AM 21.2 °F 15.8 °F 80% 30.28 in 8.0 mi Calm Calm - N/A   Overcast
11:35 AM 21.2 °F 17.6 °F 86% 30.28 in 8.0 mi Calm Calm - N/A   Overcast
11:55 AM 21.2 °F 15.8 °F 80% 30.26 in 8.0 mi Calm Calm - N/A   Overcast
12:15 PM 23.0 °F 17.6 °F 80% 30.26 in 8.0 mi Calm Calm - N/A   Overcast
12:35 PM 23.0 °F 17.6 °F 80% 30.26 in 8.0 mi Calm Calm - N/A   Overcast
12:55 PM 23.0 °F 17.6 °F 80% 30.25 in 8.0 mi Calm Calm - N/A   Overcast
1:15 PM 23.0 °F 17.6 °F 80% 30.25 in 8.0 mi Calm Calm - N/A   Mostly Cloudy
1:35 PM 24.8 °F 17.6 °F 74% 30.25 in 8.0 mi Calm Calm - N/A   Mostly Cloudy
1:55 PM 24.8 °F 17.6 °F 74% 30.25 in 8.0 mi Calm Calm - N/A   Scattered Clouds
2:15 PM 24.8 °F 17.6 °F 74% 30.25 in 9.0 mi Calm Calm - N/A   Scattered Clouds
2:35 PM 26.6 °F 17.6 °F 69% 30.26 in 9.0 mi Calm Calm - N/A   Scattered Clouds
2:55 PM 26.6 °F 19.4 °F 74% 30.25 in 9.0 mi Calm Calm - N/A   Mostly Cloudy
3:15 PM 26.6 °F 19.4 °F 74% 30.26 in 9.0 mi Calm Calm - N/A   Mostly Cloudy
3:35 PM 26.6 °F 17.6 °F 69% 30.27 in 9.0 mi Calm Calm - N/A   Overcast
4:15 PM 24.8 °F 17.6 °F 74% 30.27 in 10.0 mi Calm Calm - N/A   Overcast
4:35 PM 23.0 °F 15.8 °F 74% 30.27 in 9.0 mi Calm Calm - N/A   Scattered Clouds
5:15 PM 21.2 °F 12.2 °F 68% 30.27 in 9.0 mi Calm Calm - N/A   Clear
5:35 PM 21.2 °F 12.2 °F 68% 30.26 in 10.0 mi Calm Calm - N/A   Clear
5:55 PM 21.2 °F 14.0 °F 74% 30.27 in 10.0 mi Calm Calm - N/A   Clear
6:15 PM 19.4 °F 12.2 °F 74% 30.26 in 10.0 mi Calm Calm - N/A   Clear
6:35 PM 17.6 °F 14.0 °F 86% 30.26 in 10.0 mi Calm Calm - N/A   Clear
6:55 PM 17.6 °F 14.0 °F 86% 30.26 in 10.0 mi Calm Calm - N/A   Clear
7:15 PM 15.8 °F 14.0 °F 93% 30.26 in 10.0 mi Calm Calm - N/A   Clear
7:35 PM 15.8 °F 12.2 °F 86% 30.26 in 10.0 mi Calm Calm - N/A   Clear
7:55 PM 14.0 °F 12.2 °F 93% 30.27 in 9.0 mi Calm Calm - N/A   Clear
8:15 PM 14.0 °F 12.2 °F 93% 30.28 in 9.0 mi Calm Calm - N/A   Clear
8:35 PM 12.2 °F 10.4 °F 92% 30.28 in 8.0 mi Calm Calm - N/A   Clear
8:55 PM 14.0 °F 12.2 °F 93% 30.27 in 8.0 mi Calm Calm - N/A   Clear
9:15 PM 12.2 °F 10.4 °F 92% 30.27 in 8.0 mi Calm Calm - N/A   Clear
9:35 PM 10.4 °F 8.6 °F 92% 30.27 in 7.0 mi Calm Calm - N/A   Clear
9:55 PM 12.2 °F 10.4 °F 92% 30.26 in 7.0 mi Calm Calm - N/A   Clear
10:15 PM 12.2 °F 10.4 °F 92% 30.26 in 7.0 mi Calm Calm - N/A   Clear
10:35 PM 10.4 °F 8.6 °F 92% 30.27 in 7.0 mi Calm Calm - N/A   Clear
10:55 PM 10.4 °F 8.6 °F 92% 30.26 in 9.0 mi Calm Calm - N/A   Clear
11:15 PM 10.4 °F 8.6 °F 92% 30.26 in 9.0 mi Calm Calm - N/A   Clear
11:35 PM 10.4 °F 8.6 °F 92% 30.27 in 8.0 mi Calm Calm - N/A   Clear
11:55 PM 10.4 °F 8.6 °F 92% 30.26 in 8.0 mi Calm Calm - N/A   Clear